Flag for Germany Weather past 2 weeks in Magdeburg, Saxony-Anhalt, Germany

Now
48 °F

Fog.


Feels Like: 48 °F
Forecast: 49 / 59 °F
Wind: 1 mph from South

Location: Magdeburg

Current Time: Oct 26, 2014 at 1:20:31 AM

Latest Report: Oct 26, 2014 at 1:00 AM


Visibility: 3 mi

Pressure: 30.21 "Hg

Humidity: 96%

Dew point: 47 °F

Location of MagdeburgLocation

Historic Weather in Magdeburg — Graph

°F

Magdeburg temperature yesterday

Maximum temperature yesterday: 56 °F (at 3:00 PM)
Minimum temperature yesterday: 42 °F (at 6:00 AM)
Average temperature yesterday: 49 °F

Past Weeks' High & Low Weather Summary

 TemperatureHumidityPressure
High74 °F (Oct 19, 3:00 PM)98% (Oct 11, 7:00 AM)30.25 "Hg (Oct 11, 7:00 AM)
Low39 °F (Oct 24, 6:00 AM)54% (Oct 14, 4:00 PM)29.47 "Hg (Oct 21, 7:00 PM)
Average55 °F86%29.92 "Hg
* Reported Midnight between Oct 10 and Oct 11 — Midnight between Oct 25 and Oct 26, Magdeburg, Weather by CustomWeather, © 2014

Note: Actual official high and low records may vary slightly from our data, if they occured in-between our weather recording intervals... More about our weather records

Advertising

Magdeburg weather history for previous 24 hours

 ConditionsComfort  
Time TempWeatherWind HumidityBarometerVisibility
12:00 AM
Oct 26
48 °FFog.1 mph95%30.20 "Hg2 mi
10:00 PM
Oct 25
49 °FFog.1 mph94%30.17 "Hg2 mi
9:00 PM50 °FFog.1 mph93%30.16 "Hg3 mi
8:00 PM54 °FOvercast.1 mph85%30.16 "Hg6 mi
7:00 PM55 °FOvercast.1 mph82%30.15 "Hg5 mi
6:00 PM55 °FOvercast.1 mph81%30.13 "Hg5 mi
5:00 PM56 °FOvercast.1 mph80%30.12 "Hg5 mi
4:00 PM56 °FOvercast.1 mph77%30.11 "Hg5 mi
3:00 PM56 °FOvercast.2 mph74%30.10 "Hg6 mi
2:00 PM55 °FOvercast.1 mph78%30.10 "Hg6 mi
1:00 PM54 °FOvercast.2 mph77%30.11 "Hg6 mi
12:00 PM52 °FPartly sunny.2 mph84%30.11 "Hg5 mi
11:00 AM48 °FFog.2 mph88%30.11 "Hg4 mi
10:00 AM45 °FFog.1 mph92%30.11 "Hg3 mi
9:00 AM44 °FFog.2 mph94%30.11 "Hg3 mi
8:00 AM43 °FFog.2 mph95%30.10 "Hg2 mi
7:00 AM42 °FFog.2 mph96%30.10 "Hg2 mi
6:00 AM42 °FFog.3 mph96%30.11 "Hg2 mi
4:00 AM43 °FFog.2 mph95%30.11 "Hg2 mi
3:00 AM43 °FFog.3 mph94%30.12 "Hg2 mi
2:00 AM43 °FFog.3 mph95%30.14 "Hg2 mi
1:00 AM43 °FFog.2 mph95%30.14 "Hg2 mi
Weather by CustomWeather, © 2014

See weather overviewHow to use our weather pages